Погода в Благовещенске

Погода в Благовещенске : погода сейчас, прогноз погоды и архив. Всё, что Вы хотите узнать о погоде в Благовещенске!

Хотите узнать прогноз погоды в Благовещенске? Тогда Вам сюда: Погода в Благовещенске

Поиск расширенной информации на нашем сайте:

Другие новости

Новости СМИ2

Главная страница сайта

Новости сайта

03.07.2017

Напоминаем, что на нашем специализированном сайте Метеоцентр.Азия вы можете получить высокодетализированные автоматические прогнозы погоды по пунктам России, СНГ и мира в авиационном формате (включающие направление и скорость ветра, видимость, явления погоды, количество и форму облачности, нижнюю и верхнюю границу облачности).


Погода в Благовещенске - сегодня

Время (UTC), дата Ветер
(°,м/с) 
Видим.   Явления Облачность Т
(°С)
Тd
(°С)
f(%) Тe
(°С)
Pmin
(гПа)
dP
(гПа)
Po
(мм)
O2
(г/м3)
Тmin Tmax R s Состояние
почвы
06 12.12.17 320 (СЗ) 6-10{13}  20000 м    10/0 верхняя 
[Cs]
-15.9 -26.3 40 -22  1022.2  0.3  750  322           
09 12.12.17 310 (СЗ) 4{11}  н/о    10/0 верхняя 
[Cs]
-16.9 -26.5 43 -22  1024.4  751  324           
12 12.12.17 310 (СЗ) н/о    10/0 верхняя 
[Cs]
-17.4 -26.5 45 -22  1025.2  0.8  752  325    -15.9       
15 12.12.17 300 (СЗ) 5{10}  н/о    9/0 средняя 
[Ac As]
-17 -26.3 44 -23  1026.1  0.9  752  325           
18 12.12.17 300 (СЗ) н/о    6/0 средняя 
[Ac trans]
-17.7 -26.9 44 -23  1027.5  1.3  753  326           
21 12.12.17 310 (СЗ) н/о    6/0 средняя 
[Ac trans]
-16.4 -25.6 45 -21  1028.7  1.3  754  325           
00 13.12.17 300 (СЗ) 20000 м    8/0 средняя 
[Ac trans]
-16.3 -25.4 45 -21  1030.2  1.5  756  325  -17.7      равномерный
сухой снег
100% 
03 13.12.17 310 (СЗ) 6-10{10}  20000 м    9/0 средняя, верхняя 
[Ac trans|Ci]
-14.2 -25.2 39 -20  1030.5  0.4  756  323           
06 13.12.17 310 (СЗ) 4{10}  20000 м    9/0 средняя 
[Ac As]
-13.3 -24.6 38 -18  1030.7  0.3  756  322           
09 13.12.17 300 (СЗ) н/о    8/0 средняя 
[Ac As]
-14.5 -24.8 41 -18  1031.9  1.1  757  324           
12 13.12.17 310 (СЗ) н/о    10/0 средняя, верхняя 
[Ac trans|Cs]
-15.1 -24.7 44 -17  1032.5  0.5  757  325    -12.5       
15 13.12.17 280 (З) н/о    10/0 средняя 
[As op]
-15.4 -24.1 47 -15  1032.5  757  325           
18 13.12.17 300 (СЗ) н/о    10/0 средняя 
[As op]
-15.7 -25.3 44 -16  1032.2  -0.3  757  325           
21 13.12.17 300 (СЗ) н/о    10/0 средняя 
[As op]
-15.5 -25.5 42 -16  1031.4  -0.8  756  325           
00 14.12.17 320 (СЗ) 20000 м    10/0 средняя 
[As op]
-16.6 -24.5 50 -17  1030.8  -0.7  756  326  -16.8      равномерный
сухой снег
100% 
03 14.12.17 170 (Ю) 20000 м    8/8 1000 м 
[Sc]
-13.5 -22.9 45 -13  1029.8  -0.7  755  322           
06 14.12.17 160 (Ю) 20000 м    ясно 
-11.8 -23.6 37 -12  1027.9  -1.7  754  319           
09 14.12.17 тихо ()   н/о    ясно 
-16.7 -22.1 63 -17  1028.2  -0.1  754  325           
12 14.12.17 290 (З) н/о    ясно 
-21.1 -24.6 73 -24  1028  -0.6  754  331    -11.3       
15 14.12.17 300 (СЗ) н/о    ясно 
-22.2 -27.3 63 -28  1028  -0.1  754  332           
18 14.12.17 300 (СЗ) н/о    ясно 
-22.8 -28 62 -27  1027  -1  753  333           
21 14.12.17 290 (З) н/о    8/8 1000 м 
[Sc]
-22.9 -28.4 61 -29  1025.7  -1.2  752  332           
00 15.12.17 290 (З) 20000 м    10/0 средняя 
[Ac As]
-21.9 -27.1 63 -26  1025.4  -0.3  752  331  -24.1      равномерный
сухой снег
100% 
03 15.12.17 320 (СЗ) 10 км  слаб. снег  10/0 средняя 
[As op]
-17.7 -22.1 68 -22  1024.4  -0.6  751  325           
06 15.12.17 320 (СЗ) 20000 м  {снег}  10/0 верхняя 
[Cs]
-16.2 -21.4 64 -19  1023.1  -1.2  750  323           
Время (UTC), дата Ветер
(°,м/с) 
Видим.   Явления Облачность Т
(°С)
Тd
(°С)
f(%) Тe
(°С)
Pmin
(гПа)
dP
(гПа)
Po
(мм)
O2
(г/м3)
Тmin Tmax R s Состояние
почвы

Для получения пояснительной информации подведите курсор к названию столбца.

ПОГОДА в Благовещенске - архив

Всё, что Вы хотите узнать о погоде в Благовещенске - удобно и подробно!

Выберите нужную дату (начиная с 1 января 2015* года) и нажмите кнопку "Найти".
Будут отображены архивные сводки погоды по пункту Благовещенск, начиная с указанной даты.


Отображать данные в формате CSV (для использования в таблицах Excel)


Внимание! Наш архив погоды предназначен исключительно для личного некоммерческого использования в познавательных целях. Если Вам необходимы официальные справки о состоянии погоды (для производственных, юридических, коммерческих и т.п. целей), обращайтесь в органы Росгидромета.

*Примечание: данная дата относится к архиву по метеостанциям СССР (Россия, СНГ, Балтия).
Архив по метеостанциям Зарубежной Европы и Азии (кроме Китая) хранится 10 дней, по другим регионам земного шара (Китай, Африка, Америка, Австралия, Океания) - 1 день.

Благовещенск - район местоположения метеостанции


Название, широта, долгота, высота метеостанции:
Благовещенск 50.2°ш. 127.6°д. 132 м над ур. моря [Российская Федерация]

Дополнительная информация

В oтличие oт бoльшинства пoгoдных сайтoв мы публикуем пoдрoбную метеoинфoрмацию в детальнoм прoфессиoнальнoм фoрмате.

Характеристики температуры и влажнoсти вoздуха измеряются на высoте 2 м в тени вдали oт зданий и деревьев.
Скoрoсть ветра измеряется на высoте 10 м (на урoвне рoста челoвека скoрoсть ветра ниже в 1.5-2 раза). Если метеoстанция нахoдится в гoрoде или в лесу, тo скoрoсть ветра занижена на 2-4 м/с пo сравнению с oткрытым местoм. Скoрoсть ветра над акватoриями крупных рек и oзёр, а также на вершинах хoлмoв на 2-5 м/с выше, чем в oбычных услoвиях.
Атмoсфернoе давление в разных тoчках местнoсти мoжет значительнo oтличаться oт давления на метеoстанции, в зависимoсти oт услoвий рельефа (при пoдъёме на 10 м давление пoнижается примернo на 1 мм рт.ст.).